Theta_e
321 312 316 323 327 329 331 332 329 333 337 332 332 331 332 331 336 341 337 340 339 332 325 318 316 316 317 314 311 314 316 316 315 314 314 315 315 318 319 321 323 323 326 327 330 331 331 332 333
319 318 321 327 329 331 332 329 337 339 336 334 334 334 332 335 336 336 337 339 337 331 324 318 316 316 317 315 312 314 316 316 316 316 316 317 317 317 318 320 326 330 331 331 333 333 333 333 334
320 325 322 327 332 333 331 336 338 338 336 335 334 333 332 333 337 337 337 338 337 331 324 319 317 317 317 316 313 314 316 317 317 317 317 317 318 319 322 323 326 331 334 334 336 336 335 335 335
322 327 323 330 334 334 334 335 338 339 338 335 333 332 331 333 334 337 336 335 338 335 327 321 317 317 317 317 314 313 316 317 317 318 318 319 319 320 321 324 328 333 336 337 338 338 338 337 336
325 325 326 329 331 333 332 333 337 338 339 336 335 333 332 331 335 335 337 335 336 338 331 324 318 317 317 317 316 313 315 317 318 318 319 320 321 321 322 325 328 333 337 339 339 338 337 336 336
323 324 328 330 331 331 331 330 337 337 336 335 335 334 332 331 334 335 335 335 335 335 338 328 323 320 318 318 317 315 315 316 318 318 319 320 321 322 323 324 327 332 339 338 336 337 334 332 332
328 325 326 328 329 330 331 329 328 329 329 333 332 333 332 332 332 334 335 335 336 335 335 337 328 324 321 319 320 318 315 316 317 318 319 321 322 322 323 323 323 330 336 334 330 327 326 325 326
328 323 325 326 328 330 330 330 329 330 331 333 333 333 332 331 333 333 333 335 334 337 335 338 336 331 324 320 320 320 319 316 317 319 320 322 324 324 324 323 323 328 330 330 328 328 327 325 325
332 326 324 325 327 328 329 329 330 331 331 331 332 332 331 332 333 333 332 331 334 336 336 337 336 335 331 324 320 320 321 319 317 319 321 325 326 326 325 326 333 335 334 332 331 330 330 326 326
336 328 325 324 325 327 329 330 331 332 332 332 332 332 331 331 331 331 331 330 331 330 339 336 337 336 336 333 327 322 322 323 323 322 324 327 326 326 326 334 336 336 337 335 331 330 330 328 327
330 332 328 326 326 327 329 331 332 332 332 332 332 332 331 330 329 331 330 330 330 330 332 340 337 337 337 338 337 333 329 329 328 326 325 327 327 326 335 337 337 333 335 334 331 331 332 329 330
326 329 330 328 327 327 329 330 331 331 329 328 329 330 330 330 328 329 329 330 330 330 330 335 340 338 340 343 341 338 335 333 329 328 329 329 333 337 339 339 337 334 334 332 333 332 332 331 331
326 325 326 328 329 329 329 330 331 331 329 328 328 329 328 328 327 330 330 329 329 330 330 330 336 340 341 345 343 342 340 339 337 336 332 332 336 339 342 337 332 334 335 334 334 333 332 331 330
322 326 327 326 325 326 327 327 328 328 327 328 327 327 327 327 327 328 329 329 329 330 331 329 330 335 341 345 342 342 342 341 340 341 339 337 338 341 340 335 335 336 334 333 332 333 332 331 329
318 321 322 323 326 326 326 327 327 327 327 328 327 326 326 326 326 326 329 329 330 332 330 328 328 330 336 342 342 343 344 344 344 342 340 340 342 342 338 335 336 336 335 334 332 332 332 332 330
321 321 322 321 323 324 326 328 327 327 327 328 328 328 327 326 326 328 329 329 331 330 329 328 331 334 339 341 344 344 344 345 345 343 343 344 343 339 333 335 336 335 334 334 333 332 331 331 331
319 323 322 323 323 324 326 327 327 327 327 328 328 328 327 327 326 328 330 329 327 327 328 331 335 336 341 342 341 346 344 343 343 337 336 335 334 333 334 336 336 336 335 334 333 332 331 331 330
320 322 322 323 323 324 325 325 326 326 326 327 327 328 328 328 326 326 328 328 330 330 333 333 338 340 344 346 345 343 345 343 337 335 334 333 332 333 335 335 335 335 334 334 332 331 330 330 329
318 322 323 323 323 324 324 325 326 326 325 325 325 325 325 326 325 327 329 331 334 336 336 339 343 347 347 348 347 345 341 338 337 334 332 334 334 335 336 335 335 336 335 333 332 331 330 328 327
316 316 316 319 323 323 324 325 326 326 325 325 325 326 325 327 327 327 330 331 336 336 339 342 345 349 349 347 347 346 342 338 336 334 332 333 336 336 335 333 333 334 333 333 332 330 329 328 327
315 315 315 316 318 319 320 321 322 322 324 325 325 324 325 326 325 326 325 336 338 339 341 342 345 349 348 347 345 343 339 337 335 334 333 334 334 335 334 333 333 332 332 332 331 330 329 328 327
316 316 317 317 318 318 320 321 321 321 322 323 324 324 324 322 324 324 324 336 339 340 340 340 344 347 346 345 341 339 338 337 336 335 334 335 335 335 332 332 331 332 330 330 330 329 329 328 328
315 317 317 317 317 316 318 319 320 322 325 325 324 324 323 323 324 324 324 338 339 340 341 344 345 344 341 340 339 337 334 334 335 335 334 336 335 334 333 333 332 331 330 330 329 329 328 329 328
314 316 316 316 316 318 318 319 319 319 321 324 324 324 323 322 322 330 338 339 339 341 343 343 343 341 340 337 335 334 335 337 334 336 336 335 334 334 334 333 331 331 330 329 330 330 329 329 328
310 312 314 318 318 319 318 320 321 320 322 323 323 323 322 323 328 339 339 338 338 340 341 341 340 340 337 338 335 336 335 334 336 336 335 335 335 333 334 332 330 330 330 330 330 330 328 329 329
308 312 314 319 320 318 318 320 319 320 321 322 323 322 329 330 337 338 338 337 338 340 340 340 340 337 337 337 335 335 335 334 336 336 335 335 333 334 332 330 330 331 332 331 329 329 328 329 328
308 309 313 314 317 318 318 319 319 319 319 322 323 328 337 339 338 338 336 336 339 339 339 340 338 336 337 335 335 335 335 336 334 334 334 333 334 329 330 330 331 332 332 330 329 329 330 330 328
316 311 314 314 316 319 321 319 320 321 323 321 325 331 338 338 337 337 336 337 338 338 339 339 337 337 337 335 334 334 335 335 335 334 332 333 331 332 330 332 333 332 331 331 331 330 329 328 326
315 311 310 313 315 318 322 321 320 321 321 323 326 338 337 336 336 336 337 337 338 338 337 338 337 336 336 334 333 333 333 333 334 333 332 332 331 331 332 332 332 331 332 331 329 330 329 326 326
313 314 310 313 317 318 320 320 324 326 326 325 333 338 336 335 336 336 336 336 336 336 338 337 336 335 335 333 334 333 334 334 332 333 331 330 330 329 329 331 331 331 331 331 330 328 327 329 327
Wind_Speed
8 5 1 3 3 2 4 7 10 12 5 4 6 6 2 4 5 5 22 26 22 25 32 31 28 25 23 21 20 18 16 14 12 10 8 7 6 5 5 4 3 3 3 3 2 1 1 2 2
5 3 3 2 2 2 5 9 1 4 3 11 12 2 3 8 7 10 16 25 25 25 32 32 29 26 24 23 21 19 17 15 13 11 9 8 7 6 5 5 5 5 5 4 3 3 4 4 4
8 5 1 3 4 6 4 5 10 13 6 2 4 7 4 7 6 8 33 30 26 25 30 31 30 27 25 24 23 21 20 17 15 12 10 8 7 6 5 5 6 6 7 7 6 6 6 6 7
3 2 3 2 9 11 15 11 6 5 21 5 8 2 5 6 7 15 33 28 26 24 25 28 29 28 27 25 24 23 22 19 17 15 13 11 9 7 6 6 7 8 7 7 8 9 9 9 9
3 3 3 5 9 12 17 9 9 8 11 4 19 2 5 12 24 20 31 30 25 22 22 24 29 29 27 26 25 24 24 23 21 18 15 14 12 9 7 8 9 8 9 9 9 9 7 10 11
1 2 2 6 12 18 17 11 7 12 17 12 1 10 4 18 21 17 17 30 26 26 25 25 28 31 31 29 28 27 25 25 24 22 19 17 15 12 10 10 9 10 11 11 10 10 11 13 14
3 4 6 8 13 20 16 9 11 4 8 4 3 5 4 7 17 20 19 18 29 32 30 29 30 32 34 34 33 31 29 27 26 25 23 21 18 15 13 12 10 11 12 13 13 13 13 12 12
4 3 6 6 12 19 17 12 4 5 2 5 7 2 7 7 19 18 19 23 22 34 36 36 33 33 36 38 37 35 32 30 28 26 25 22 20 17 16 14 14 14 13 13 14 13 13 14 14
9 5 8 10 13 16 19 13 8 5 8 4 4 2 1 11 20 19 15 8 25 27 39 39 38 38 38 40 40 37 35 32 30 28 27 24 22 20 17 15 15 16 15 14 14 15 15 14 14
12 8 17 17 13 15 18 15 14 6 5 3 4 6 18 19 2 2 2 4 10 12 38 42 40 39 40 39 40 40 38 36 34 31 29 27 25 22 17 15 14 20 17 16 13 14 10 11 13
12 19 17 18 17 21 22 19 17 13 7 5 5 8 19 15 14 3 1 3 11 21 12 36 39 40 40 40 40 41 41 38 35 34 31 28 26 21 19 19 20 15 18 18 14 14 13 11 9
18 21 19 22 21 23 25 22 20 17 10 8 10 12 10 12 7 7 6 9 16 25 21 17 35 40 43 39 39 39 39 37 36 37 32 29 26 22 20 19 21 18 20 18 15 16 15 11 11
23 20 19 20 19 23 24 26 23 22 19 13 11 18 10 9 10 14 15 16 19 26 23 7 16 29 38 40 37 38 37 36 33 31 32 32 28 23 20 21 16 14 13 15 14 19 12 11 11
14 15 22 18 21 22 24 25 21 21 19 14 13 13 10 11 11 13 19 21 24 25 13 11 11 21 34 43 40 40 37 36 32 29 27 31 29 24 21 18 18 15 15 14 11 10 11 12 12
18 21 20 24 22 25 22 30 31 20 14 17 15 17 17 11 12 11 23 27 25 14 12 16 19 21 31 38 40 39 35 33 31 30 29 29 29 28 20 17 15 16 17 16 15 17 14 13 14
17 16 22 22 21 23 17 40 13 14 14 14 18 19 11 11 10 23 32 29 19 15 15 18 17 19 28 40 33 32 32 31 32 31 28 28 31 25 19 17 16 12 13 16 17 17 17 15 14
13 21 24 26 23 19 15 28 20 17 19 22 22 22 19 16 11 14 15 16 17 15 18 15 19 23 31 37 40 25 24 25 24 23 20 22 22 20 19 17 15 13 15 14 13 14 16 15 15
11 21 26 29 12 14 21 27 30 29 21 23 22 20 19 18 13 14 16 20 18 13 10 15 20 25 30 32 29 26 17 19 18 17 17 18 18 18 15 15 17 19 18 18 14 16 17 15 15
13 21 20 18 18 16 21 23 25 18 10 13 12 11 11 10 11 16 16 19 11 15 16 16 22 27 31 31 28 24 21 18 15 14 16 15 16 16 15 14 15 16 18 16 15 13 13 14 14
20 25 24 15 14 16 22 20 24 22 18 19 23 19 11 8 8 7 5 8 15 15 16 17 22 30 30 31 26 26 20 20 17 15 17 16 17 17 14 13 15 16 17 15 15 14 12 10 10
25 27 19 21 13 23 16 15 17 17 16 13 10 11 8 11 10 8 9 14 23 22 21 21 22 27 25 27 23 21 17 16 18 18 19 20 19 15 13 13 13 12 12 12 10 11 13 11 12
24 14 20 21 13 19 6 17 21 17 19 16 18 10 13 11 8 8 7 9 21 21 22 20 21 25 23 26 23 22 20 11 17 16 16 17 16 12 9 10 10 8 9 7 8 12 14 15 14
24 13 18 16 14 15 20 9 27 10 12 9 8 15 13 11 11 12 9 15 23 26 25 24 26 24 21 19 16 17 18 10 11 12 12 14 10 8 9 7 6 7 8 9 9 10 14 15 15
18 17 21 14 9 12 20 14 30 16 19 5 10 11 10 10 11 7 14 25 22 26 28 28 25 22 17 18 18 16 11 7 13 17 16 12 8 9 8 6 5 7 8 8 8 9 10 11 13
14 14 8 9 10 17 11 11 20 7 12 15 15 13 12 10 9 16 18 16 19 22 27 25 24 19 21 17 16 11 13 11 10 9 8 6 4 4 6 8 7 6 6 7 7 7 7 8 8
13 11 10 14 14 16 11 11 7 15 17 15 19 14 2 10 15 18 16 14 19 23 25 24 23 21 19 19 15 12 8 8 7 5 4 6 5 6 8 8 6 6 5 5 6 6 6 6 6
21 18 13 17 18 5 8 9 24 24 23 15 11 7 12 16 16 15 15 14 21 23 24 26 26 21 18 17 15 13 10 9 8 6 6 6 7 10 9 8 6 5 6 5 6 7 7 6 3
13 10 5 10 16 16 8 13 10 17 14 22 10 11 14 14 15 15 13 14 21 24 28 27 24 22 20 18 16 13 10 10 11 8 7 8 10 9 9 7 6 6 6 5 7 7 8 6 4
7 14 11 7 11 13 8 10 16 20 21 14 11 19 18 17 16 14 14 18 22 24 26 28 25 23 21 19 16 15 13 12 11 9 9 9 12 10 8 7 7 7 5 3 5 5 5 6 4
15 18 15 10 8 12 6 11 7 8 7 12 19 19 17 18 17 15 16 14 19 21 25 27 26 23 22 19 16 15 14 11 9 10 11 12 11 11 9 7 7 6 6 5 4 4 5 4 5
Wind_Direction
264 272 164 290 38 171 250 251 232 263 322 1 53 66 43 62 95 158 164 168 167 167 174 174 175 172 169 168 165 165 163 158 154 150 143 140 140 150 146 158 170 162 167 163 173 226 279 281 282
238 176 249 261 157 245 264 264 198 189 353 25 347 210 56 70 99 128 138 176 169 170 175 176 177 178 174 174 173 173 171 166 161 159 153 153 163 171 176 187 203 190 198 215 229 240 248 262 262
201 213 103 184 209 206 242 299 58 347 71 85 341 331 89 121 114 136 157 167 167 170 177 178 180 182 181 180 180 180 177 174 172 170 171 174 178 181 196 207 218 213 214 224 236 252 254 252 251
200 234 299 244 257 267 250 264 80 347 308 201 255 53 54 117 118 134 156 166 167 168 176 182 185 188 188 187 188 186 185 182 183 185 185 188 190 193 211 226 228 225 229 241 250 255 252 250 253
258 268 245 228 254 265 267 228 128 203 217 291 235 149 97 85 112 127 153 168 170 170 177 187 191 193 196 195 196 195 194 192 194 196 197 198 197 204 216 231 237 240 240 246 256 268 272 258 259
291 209 259 242 260 262 276 287 178 178 185 224 264 276 135 129 125 137 153 173 180 182 186 186 191 197 200 200 203 203 203 203 201 201 203 203 202 208 217 227 235 241 246 247 254 252 258 257 259
183 303 244 265 275 285 282 336 314 13 357 121 98 70 146 130 144 160 169 192 186 189 191 189 191 196 202 204 204 206 208 210 211 210 208 207 206 209 218 233 240 240 246 250 257 264 263 262 264
217 197 287 271 275 284 290 308 307 306 327 132 110 193 186 211 175 180 189 196 208 189 194 195 194 198 203 207 208 207 210 212 214 217 218 214 213 215 223 236 246 244 242 249 253 261 263 270 269
222 243 257 253 248 260 295 310 319 71 291 350 69 28 353 171 185 182 200 212 205 191 197 196 197 200 205 208 210 209 211 214 217 220 222 221 220 221 229 242 244 251 238 239 255 262 264 266 269
223 227 231 246 260 269 282 292 311 340 300 242 317 326 328 310 93 175 260 289 287 284 200 200 200 204 204 207 212 212 211 212 215 219 222 224 227 230 241 237 246 246 245 238 250 260 261 260 267
235 237 237 262 269 273 278 288 305 294 260 304 240 340 284 295 286 202 234 276 291 287 242 207 208 208 208 206 211 212 213 213 215 219 223 227 230 236 234 236 237 240 235 232 243 249 247 252 258
240 235 236 248 254 268 274 284 284 288 276 277 286 222 243 245 259 221 224 257 271 274 275 213 213 210 211 203 206 209 210 214 218 222 222 225 225 230 236 244 242 246 238 233 237 241 243 236 242
234 244 242 246 250 255 269 273 274 277 286 278 284 286 273 261 257 238 221 237 253 266 260 240 212 213 217 204 201 207 207 210 212 219 222 220 221 223 225 233 246 243 227 223 241 241 236 223 231
266 251 250 250 245 252 259 266 265 262 270 267 271 270 270 263 258 262 233 230 245 250 229 256 236 223 217 203 199 205 205 210 208 215 218 216 215 215 220 237 237 227 200 219 241 210 227 244 242
265 269 268 254 253 253 262 266 254 266 275 280 270 266 268 258 258 247 244 229 240 209 231 250 247 240 225 209 199 203 204 205 207 209 211 212 206 213 219 230 233 242 237 250 237 248 249 252 251
250 264 258 252 255 253 250 260 260 280 276 275 284 275 263 256 255 264 257 247 216 216 228 263 231 225 216 208 189 201 202 197 206 206 201 199 200 212 218 230 235 246 246 233 241 247 252 249 248
230 238 249 255 235 246 235 269 267 268 262 257 258 264 266 257 254 258 280 218 230 240 260 251 208 207 204 204 198 179 181 191 180 172 174 184 194 204 215 230 234 242 244 238 248 246 244 246 242
211 226 235 248 240 238 242 252 263 261 257 259 259 257 253 251 237 242 260 243 222 233 231 195 197 198 195 191 190 191 181 180 164 182 193 198 203 213 227 235 237 242 249 255 251 242 239 240 246
255 238 253 249 240 262 258 259 265 271 241 260 265 259 250 232 225 235 258 255 174 152 153 172 176 184 181 171 169 177 160 161 175 178 182 193 206 210 223 232 233 247 252 260 246 232 242 242 238
246 260 262 274 244 254 252 257 249 251 259 250 254 254 248 239 229 230 214 214 164 151 151 160 169 175 171 167 167 176 173 170 181 190 206 209 194 197 213 239 248 250 254 248 222 231 240 240 218
231 238 251 257 284 281 292 290 279 286 277 268 246 239 233 213 217 217 231 166 154 156 152 150 150 167 161 163 165 164 167 180 195 205 205 203 203 213 226 240 249 256 261 255 250 229 223 224 212
241 240 242 253 257 258 238 273 267 267 266 267 265 272 258 241 224 221 212 143 152 154 150 151 154 154 153 161 161 169 169 168 200 187 191 190 192 204 223 241 250 251 253 237 243 238 228 225 224
251 258 237 259 244 259 252 263 265 212 244 245 263 254 243 235 222 225 204 144 148 146 140 145 149 145 149 165 162 165 163 160 159 187 155 164 177 208 220 237 258 233 227 236 231 221 226 228 230
261 244 249 264 257 255 243 227 263 244 248 239 249 262 252 248 233 136 123 128 131 137 139 142 149 149 147 161 159 154 144 138 152 144 145 153 182 215 229 217 229 223 229 227 233 230 226 222 226
268 230 246 239 231 239 221 241 240 257 223 225 244 254 259 245 130 130 129 131 134 133 135 144 149 147 144 145 154 140 129 125 124 123 137 155 201 220 201 208 199 216 234 232 224 214 207 215 223
263 237 216 220 223 249 246 243 237 243 258 233 247 253 206 111 122 131 134 134 135 133 137 144 149 145 138 137 135 136 134 141 128 150 150 169 178 187 190 178 195 205 210 219 199 205 206 221 224
254 254 247 250 279 252 236 241 261 255 261 246 239 155 113 124 127 130 131 133 134 136 144 148 148 147 143 143 146 145 142 148 148 153 144 150 158 149 160 174 179 189 200 215 204 204 208 217 175
270 258 257 220 232 251 266 238 262 266 261 229 197 149 129 125 123 130 130 131 135 142 149 150 152 154 155 155 152 153 166 167 158 151 153 151 147 162 160 162 177 177 187 180 195 216 216 165 144
303 245 238 271 212 232 264 261 258 255 242 200 163 147 138 135 133 136 132 134 139 141 147 154 156 159 157 156 169 177 171 158 153 151 154 148 150 154 150 161 159 163 169 197 202 187 179 169 159
286 284 230 228 256 232 260 255 261 305 139 157 143 143 140 137 138 136 135 137 139 140 150 155 158 160 159 164 177 162 168 156 153 160 160 171 160 168 149 148 144 152 128 119 150 178 197 194 148